Location: Enborne
(51.3833°N, 1.3667°W)
Time: 15:29:06
(UTC+00:00)

NOSS 2-2 (C) - Pass Details

Date: 21 January 2021
Orbit: 463 x 1745 km, 63.3° (Epoch: 03 March)

Event Time Altitude Azimuth Distance (km) Brightness Sun altitude
Rises 20:47:26 0° 315° (NW) 2,992 7.8 -38.5°
Reaches altitude 10° 20:49:28 10° 317° (NW) 2,209 6.9 -38.8°
Enters shadow 20:50:28 17° 319° (NW) 1,836 6.4 -38.9°
